FW6696 Weather Reports


Display with metric or nautical units.
time (UTC)temp
F
wind
direction
speed
MPH
gust
MPH
rain 1hr
in
rain 24hr
in
rain mn
in
humidity
%
barometer
mb
20260510174008 76 112 1.0 2.0 0.00 0.00 0.00 59 1002.7
20260510173022 73 64 1.0 2.0 0.00 0.00 0.00 59 1002.6
20260510171044 76 69 2.0 2.0 0.00 0.00 0.00 60 1002.8
20260510170023 78 145 1.0 2.0 0.00 0.00 0.00 52 1002.6
20260510165016 79 94 1.0 2.0 0.00 0.00 0.00 54 1002.5
20260510164040 80 76 2.0 3.0 0.00 0.00 0.00 53 1002.7
20260510163043 79 140 1.0 2.0 0.00 0.00 0.00 54 1002.5
20260510162007 78 79 1.0 2.0 0.00 0.00 0.00 58 1002.6
20260510161038 78 96 1.0 2.0 0.00 0.00 0.00 55 1002.8
20260510160010 78 13 3.0 4.0 0.00 0.00 0.00 55 1002.6
20260510155036 78 102 1.0 2.0 0.00 0.00 0.00 56 1002.7
20260510154028 78 128 1.0 2.0 0.00 0.00 0.00 56 1002.5
20260510151010 75 65 2.0 3.0 0.00 0.00 0.00 58 1002.6
20260510150040 76 182 2.0 3.0 0.00 0.00 0.00 60 1002.5
20260510145014 75 135 2.0 3.0 0.00 0.00 0.00 58 1003.2
20260510144027 74 143 2.0 3.0 0.00 0.00 0.00 59 1002.8
20260510143044 74 45 2.0 3.0 0.00 0.00 0.00 61 1003.0
20260510141010 71 134 1.0 2.0 0.00 0.00 0.00 63 1003.1
20260510140040 71 124 1.0 2.0 0.00 0.00 0.00 67 1002.8
20260510135038 69 182 2.0 3.0 0.00 0.00 0.00 71 1002.9
20260510134038 68 80 0.0 0.0 0.00 0.00 0.00 70 1003.0
20260510133023 68 101 0.0 0.0 0.00 0.00 0.00 71 1002.8
20260510132043 67 156 2.0 3.0 0.00 0.00 0.00 71 1002.5
20260510131023 67 191 2.0 3.0 0.00 0.00 0.00 73 1002.8
20260510130002 66 102 0.0 0.0 0.00 0.00 0.00 75 1002.7
20260510125018 65 88 1.0 2.0 0.00 0.00 0.00 77 1002.8
20260510124033 62 129 0.0 0.0 0.00 0.00 0.00 84 1002.7
20260510121034 56 92 0.0 0.0 0.00 0.00 0.00 99 1002.4
20260510120026 54 97 0.0 0.0 0.00 0.00 0.00 99 1002.7
20260510115003 53 100 0.0 0.0 0.00 0.00 0.00 99 1002.4
20260510114005 52 105 0.0 0.0 0.00 0.00 0.00 99 1002.2
20260510113016 52 97 0.0 0.0 0.00 0.00 0.00 99 1002.0
20260510112030 51 97 0.0 0.0 0.00 0.00 0.00 99 1002.0
20260510111040 50 97 0.0 0.0 0.00 0.00 0.00 99 1001.8
20260510105037 50 88 0.0 0.0 0.00 0.00 0.00 99 1001.4
20260510104025 50 101 0.0 0.0 0.00 0.00 0.00 99 1001.3
20260510103003 50 93 0.0 0.0 0.00 0.00 0.00 99 1001.4
20260510102016 50 93 0.0 0.0 0.00 0.00 0.00 99 1001.4
20260510101038 50 92 0.0 0.0 0.00 0.00 0.00 99 1001.1
20260510100013 50 97 0.0 0.0 0.00 0.00 0.00 99 1001.1
20260510093035 50 92 0.0 0.0 0.00 0.00 0.00 99 1000.7
20260510092038 50 89 1.0 2.0 0.00 0.00 0.00 99 1000.6
20260510091041 50 90 0.0 0.0 0.00 0.00 0.00 99 1000.4
20260510090023 50 83 0.0 0.0 0.00 0.00 0.00 99 1000.6
20260510085045 50 93 0.0 0.0 0.00 0.00 0.00 99 1000.3
20260510084039 50 91 0.0 0.0 0.00 0.00 0.00 99 1000.3
20260510083017 50 79 0.0 0.0 0.00 0.00 0.00 99 1000.3
20260510082028 51 97 0.0 0.0 0.00 0.00 0.00 99 1000.1
20260510081029 51 96 0.0 0.0 0.00 0.00 0.00 99 1000.1
20260510080034 51 98 0.0 0.0 0.00 0.00 0.00 99 1000.3
20260510074028 51 90 0.0 0.0 0.00 0.00 0.00 99 1000.0
20260510073029 51 102 0.0 0.0 0.00 0.00 0.00 99 999.9
20260510072011 51 92 0.0 0.0 0.00 0.00 0.00 99 1000.1
20260510071019 51 94 0.0 0.0 0.00 0.00 0.00 99 1000.2
20260510070001 51 96 0.0 0.0 0.00 0.00 0.00 99 1000.0
20260510065040 51 92 0.0 0.0 0.00 0.00 0.00 99 999.8
20260510063020 51 83 0.0 0.0 0.00 0.00 0.00 99 1000.1
20260510062035 52 92 0.0 0.0 0.00 0.00 0.00 99 1000.1
20260510060015 52 93 0.0 0.0 0.00 0.00 0.00 99 1000.2
20260510055010 52 100 0.0 0.0 0.00 0.00 0.00 99 1000.2
20260510054019 52 93 0.0 0.0 0.00 0.00 0.00 99 1000.1
20260510053037 52 93 0.0 0.0 0.00 0.00 0.00 99 1000.3
20260510051019 52 93 0.0 0.0 0.00 0.00 0.00 99 1000.6
20260510050013 52 94 0.0 0.0 0.00 0.00 0.00 99 1000.4
20260510045042 53 93 0.0 0.0 0.00 0.00 0.00 99 1000.6
20260510044013 53 93 0.0 0.0 0.00 0.00 0.00 99 1000.5
20260510041018 53 92 0.0 0.0 0.00 0.00 0.00 98 1000.6
20260510035035 54 103 0.0 0.0 0.00 0.00 0.00 97 1000.7
20260510034015 54 89 0.0 0.0 0.00 0.00 0.00 96 1000.5
20260510031030 55 88 0.0 0.0 0.00 0.00 0.00 95 1000.5
20260510030046 55 90 0.0 0.0 0.00 0.00 0.00 94 1000.5
20260510025026 55 93 0.0 0.0 0.00 0.00 0.00 93 1000.2
20260510024031 56 90 0.0 0.0 0.00 0.00 0.00 93 1000.2
20260510021028 57 94 0.0 0.0 0.00 0.00 0.00 90 999.6
20260510015034 57 91 0.0 0.0 0.00 0.00 0.00 88 999.4
20260510014040 58 94 0.0 0.0 0.00 0.00 0.00 87 999.4
20260510013001 58 99 0.0 0.0 0.00 0.00 0.00 86 999.5
20260510012043 59 87 0.0 0.0 0.00 0.00 0.00 84 999.1
20260510011042 60 93 0.0 0.0 0.00 0.00 0.00 83 998.9
20260510010042 60 93 0.0 0.0 0.00 0.00 0.00 82 999.0
20260510005020 61 93 0.0 0.0 0.00 0.00 0.00 80 998.4
20260510003009 63 92 0.0 0.0 0.00 0.00 0.00 77 998.6
20260510002008 63 93 0.0 0.0 0.00 0.00 0.00 75 998.2
20260510000025 64 81 0.0 0.0 0.00 0.00 0.00 73 998.1
20260509235003 65 94 0.0 0.0 0.00 0.00 0.00 73 998.1
20260509234017 65 95 0.0 0.0 0.00 0.00 0.00 71 998.2
20260509233003 66 91 0.0 0.0 0.00 0.00 0.00 70 998.3
20260509232013 67 92 1.0 2.0 0.00 0.00 0.00 68 998.1
20260509230042 67 74 0.0 0.0 0.00 0.00 0.00 68 998.0
20260509225041 68 109 0.0 0.0 0.00 0.00 0.00 67 997.8
20260509222036 69 141 1.0 2.0 0.00 0.00 0.00 68 997.9
20260509221014 69 113 1.0 2.0 0.00 0.00 0.00 66 997.9
20260509215004 70 95 1.0 2.0 0.00 0.00 0.00 66 998.1
20260509214022 71 113 1.0 2.0 0.00 0.00 0.00 64 998.0
20260509212042 70 96 0.0 0.0 0.00 0.00 0.00 62 998.1
20260509211039 70 217 2.0 3.0 0.00 0.00 0.00 64 998.3
20260509210005 71 104 1.0 2.0 0.00 0.00 0.00 62 998.3
20260509205032 71 94 1.0 2.0 0.00 0.00 0.00 65 998.3
20260509204021 71 97 1.0 2.0 0.00 0.00 0.00 64 998.3
20260509203035 69 110 1.0 2.0 0.00 0.00 0.00 68 998.2
20260509202022 69 245 2.0 3.0 0.00 0.00 0.00 65 998.0
20260509201014 69 112 1.0 3.0 0.00 0.00 0.00 63 997.9
20260509200001 70 109 1.0 2.0 0.00 0.00 0.00 62 997.9
20260509195040 71 100 1.0 2.0 0.00 0.00 0.00 61 997.8
20260509194034 71 151 2.0 3.0 0.00 0.00 0.00 63 997.9
20260509193025 71 179 1.0 2.0 0.00 0.00 0.00 62 997.8
20260509190029 70 116 2.0 2.0 0.00 0.00 0.00 63 997.8
20260509185042 73 230 2.0 3.0 0.00 0.00 0.00 57 998.2
20260509184012 73 98 1.0 2.0 0.00 0.00 0.00 60 997.9
20260509183029 73 188 2.0 3.0 0.00 0.00 0.00 60 997.9
20260509180011 69 94 0.0 0.0 0.00 0.00 0.00 62 998.5
20260509175004 69 116 1.0 2.0 0.00 0.00 0.00 64 998.5